Date String (YYYY-MM-DD hh:mm:ss) UTC,Instrument flags,Ambient pressure (hPa),Sample flow (lpm),Bypass flow (lpm),Sample temperature (°C),Ambient temperature (°C),ASC tube jacket temperature (°C),LED temperature (°C),Box temperature (°C),Sample RH (%),Span deviation,Mass concentration (μg/m³),Mass concentration (μg/m³),Mass concentration (μg/m³)
DateTimeUTC,F1_M11,P_M11,Q1_M11,Q2_M11,T1_M11,T2_M11,T3_M11,T4_M11,T5_M11,U1_M11,ZSPAN_M11,X0_M11,X2_M11,X1_M11
2021-09-11 07:00:00,,0829.2,5.01,0.00,29.4,27.8,00.0,38.5,31.1,10.9,0001.2,0022.77,0011.63,0010.34
2021-09-11 07:01:00,,0828.7,4.99,0.00,29.4,28.0,00.0,38.5,31.2,11.1,0001.1,0022.21,0011.52,0010.28
2021-09-11 07:02:00,,0828.7,5.01,0.00,29.5,28.2,00.0,38.5,31.2,10.9,0001.3,0022.13,0011.36,0010.21
2021-09-11 07:03:00,,0828.7,5.01,0.00,29.5,28.3,00.0,38.5,31.3,10.6,0001.4,0021.60,0011.27,0010.13
2021-09-11 07:04:00,,0828.8,5.01,0.00,29.5,28.5,00.0,38.5,31.3,10.6,0001.3,0021.12,0011.14,0010.06
2021-09-11 07:05:00,,0829.1,4.99,0.00,29.6,28.6,00.0,38.6,31.4,10.6,0001.3,0019.63,0010.96,0009.97
2021-09-11 07:06:00,,0828.9,5.01,0.00,29.6,28.7,00.0,38.6,31.4,10.7,0001.4,0018.18,0010.85,0009.90
2021-09-11 07:07:00,,0828.8,5.00,0.00,29.7,28.7,00.0,38.6,31.5,11.0,0001.3,0016.85,0010.73,0009.87
2021-09-11 07:08:00,,0828.9,5.00,0.00,29.7,28.8,00.0,38.6,31.5,11.4,0001.1,0017.33,0010.78,0009.92
2021-09-11 07:09:00,,0828.8,5.01,0.00,29.7,28.3,00.0,38.7,31.4,11.4,0001.2,0017.76,0010.89,0009.99
2021-09-11 07:10:00,,0829.2,4.99,0.00,29.6,26.5,00.0,38.6,30.9,11.4,0001.3,0019.26,0010.99,0010.04
2021-09-11 07:11:00,,0829.3,5.01,0.00,29.5,26.4,00.0,38.6,30.9,11.3,0001.5,0019.70,0011.09,0010.11
2021-09-11 07:12:00,,0828.9,5.00,0.00,29.4,26.7,00.0,38.6,31.0,11.1,0001.2,0019.97,0011.15,0010.16
2021-09-11 07:13:00,,0828.9,4.99,0.00,29.4,27.1,00.0,38.6,31.0,11.2,0000.8,0020.41,0011.21,0010.22
2021-09-11 07:14:00,,0828.9,5.01,0.00,29.4,27.4,00.0,38.5,31.1,11.8,0000.2,0021.05,0011.29,0010.32
2021-09-11 07:15:00,,0828.9,4.99,0.00,29.4,27.7,00.0,38.5,31.1,12.2,0000.2,0021.50,0011.54,0010.50
2021-09-11 07:16:00,,0828.9,5.01,0.00,29.5,28.0,00.0,38.5,31.2,11.7,0000.2,0022.27,0011.74,0010.66
2021-09-11 07:17:00,,0829.0,4.99,0.00,29.5,28.2,00.0,38.5,31.3,11.3,0000.4,0023.03,0011.80,0010.72
2021-09-11 07:18:00,,0829.0,5.00,0.00,29.5,28.3,00.0,38.5,31.3,12.7,0000.6,0023.17,0012.00,0010.88
2021-09-11 07:19:00,,0829.0,5.00,0.00,29.6,28.5,00.0,38.6,31.4,13.0,0000.8,0024.37,0012.26,0011.07
2021-09-11 07:20:00,,0829.0,5.01,0.00,29.6,28.6,00.0,38.6,31.4,13.3,0000.6,0025.08,0012.57,0011.32
2021-09-11 07:21:00,,0829.0,4.99,0.00,29.6,28.7,00.0,38.6,31.4,13.3,0000.3,0024.44,0012.88,0011.63
2021-09-11 07:22:00,,0829.1,4.99,0.00,29.7,28.8,00.0,38.6,31.5,13.3,0000.3,0024.78,0013.15,0011.91
2021-09-11 07:23:00,,0829.1,5.01,0.00,29.7,28.8,00.0,38.6,31.5,13.3,0000.7,0025.20,0013.46,0012.16
2021-09-11 07:24:00,,0829.1,4.99,0.00,29.7,28.9,00.0,38.7,31.6,13.2,0000.7,0025.10,0013.77,0012.42
2021-09-11 07:25:00,,0829.1,5.01,0.00,29.8,28.3,00.0,38.7,31.5,13.2,0001.0,0025.56,0014.08,0012.64
2021-09-11 07:26:00,,0829.0,5.00,0.00,29.6,26.6,00.0,38.7,31.0,13.3,0001.0,0025.53,0014.24,0012.82
2021-09-11 07:27:00,,0829.0,4.99,0.00,29.5,26.4,00.0,38.6,30.9,13.3,0000.9,0025.92,0014.42,0012.99
2021-09-11 07:28:00,,0829.0,5.01,0.00,29.5,26.7,00.0,38.6,31.0,13.4,0000.9,0026.90,0014.79,0013.29
2021-09-11 07:29:00,,0828.9,5.01,0.00,29.4,27.1,00.0,38.6,31.0,13.0,0000.7,0027.63,0015.04,0013.50
2021-09-11 07:30:00,,0829.0,4.98,0.00,29.4,27.5,00.0,38.6,31.1,12.7,0000.5,0027.03,0015.04,0013.53
2021-09-11 07:31:00,,0828.9,5.01,0.00,29.5,27.7,00.0,38.6,31.2,12.4,0000.2,0026.57,0014.98,0013.51
2021-09-11 07:32:00,,0828.9,5.00,0.00,29.5,28.0,00.0,38.6,31.2,12.5,0000.2,0026.22,0014.82,0013.41
2021-09-11 07:33:00,,0829.0,4.99,0.00,29.5,28.2,00.0,38.6,31.3,12.9,0000.4,0025.81,0014.84,0013.36
2021-09-11 07:34:00,,0829.0,5.00,0.00,29.5,28.4,00.0,38.6,31.3,12.9,0000.3,0026.43,0014.96,0013.39
2021-09-11 07:35:00,,0829.0,5.00,0.00,29.6,28.5,00.0,38.6,31.4,12.6,0000.5,0026.44,0014.96,0013.38
2021-09-11 07:36:00,,0829.1,5.00,0.00,29.6,28.6,00.0,38.6,31.4,12.7,0000.7,0026.92,0014.93,0013.37
2021-09-11 07:37:00,,0829.1,5.00,0.00,29.7,28.7,00.0,38.6,31.5,13.0,0000.4,0026.65,0014.93,0013.36
2021-09-11 07:38:00,,0829.1,5.00,0.00,29.7,28.8,00.0,38.7,31.5,13.1,0000.5,0026.56,0014.94,0013.35
2021-09-11 07:39:00,,0829.1,5.00,0.00,29.7,28.9,00.0,38.7,31.6,13.1,0000.4,0025.47,0014.92,0013.31
2021-09-11 07:40:00,,0829.1,4.99,0.00,29.8,28.8,00.0,38.7,31.6,13.1,0000.6,0025.88,0014.88,0013.28
2021-09-11 07:41:00,,0829.0,5.00,0.00,29.7,27.3,00.0,38.7,31.2,13.0,0000.8,0027.60,0014.94,0013.30
2021-09-11 07:42:00,,0829.1,5.01,0.00,29.6,26.4,00.0,38.7,31.0,12.9,0001.3,0027.02,0014.98,0013.32
2021-09-11 07:43:00,,0829.1,4.99,0.00,29.5,26.6,00.0,38.7,31.0,12.8,0001.5,0027.29,0015.05,0013.38
2021-09-11 07:44:00,,0829.0,5.00,0.00,29.5,26.9,00.0,38.6,31.0,12.8,0001.6,0027.20,0014.99,0013.35
2021-09-11 07:45:00,,0829.0,5.01,0.00,29.4,27.3,00.0,38.6,31.1,12.5,0001.4,0026.90,0014.85,0013.28
2021-09-11 07:46:00,,0829.0,4.99,0.00,29.5,27.6,00.0,38.6,31.1,12.3,0001.4,0027.09,0014.73,0013.20
2021-09-11 07:47:00,,0829.0,4.99,0.00,29.5,27.9,00.0,38.6,31.2,12.2,0001.5,0026.06,0014.61,0013.08
2021-09-11 07:48:00,,0829.1,5.00,0.00,29.5,28.1,00.0,38.6,31.3,12.3,0001.9,0026.50,0014.51,0012.97
2021-09-11 07:49:00,,0829.1,5.00,0.00,29.5,28.3,00.0,38.6,31.3,12.3,0001.9,0026.37,0014.48,0012.92
2021-09-11 07:50:00,,0829.1,5.00,0.00,29.6,28.4,00.0,38.6,31.4,12.3,0001.9,0026.36,0014.33,0012.84
2021-09-11 07:51:00,,0829.1,4.99,0.00,29.6,28.5,00.0,38.6,31.4,12.4,0002.0,0026.02,0014.30,0012.80
2021-09-11 07:52:00,,0829.0,5.01,0.00,29.6,28.6,00.0,38.6,31.4,12.4,0002.0,0024.48,0014.26,0012.76
2021-09-11 07:53:00,,0829.0,5.02,0.00,29.7,28.7,00.0,38.7,31.5,12.3,0001.6,0024.69,0014.30,0012.79
2021-09-11 07:54:00,,0829.0,5.00,0.00,29.7,28.8,00.0,38.7,31.5,12.3,0001.7,0025.59,0014.38,0012.82
2021-09-11 07:55:00,,0829.0,5.00,0.00,29.7,28.8,00.0,38.7,31.5,12.3,0001.8,0026.54,0014.43,0012.86
2021-09-11 07:56:00,,0829.0,5.00,0.00,29.8,28.8,00.0,38.7,31.6,12.2,0002.2,0026.90,0014.54,0012.93
2021-09-11 07:57:00,,0829.0,5.00,0.00,29.7,27.3,00.0,38.7,31.1,12.3,0002.5,0026.87,0014.70,0013.08
2021-09-11 07:58:00,,0829.0,5.01,0.00,29.6,26.3,00.0,38.7,30.9,12.3,0002.4,0027.04,0014.85,0013.24
2021-09-11 07:59:00,,0829.0,5.00,0.00,29.5,26.6,00.0,38.7,31.0,12.4,0002.6,0026.77,0014.97,0013.35
